N1DJS Weather Reports


time (UTC)temp
C
wind
direction
speed
KPH
gust
KPH
rain 1hr
cm
rain 24hr
cm
rain mn
cm
humidity
%
barometer
mb
20260903060034 23 211 0.0 0.0 0.00 0.00 0.00 92 1011.1
20260903054512 23 211 0.0 0.0 0.00 0.00 0.00 92 1011.0
20260903053011 23 211 0.0 0.0 0.00 0.00 0.00 92 1011.0
20260903051510 23 211 0.0 0.0 0.00 0.00 0.00 92 1010.9
20260903050010 23 211 0.0 0.0 0.00 0.00 0.00 92 1010.9
20260903044508 23 211 0.0 0.0 0.00 0.00 0.00 92 1010.8
20260903043020 23 211 0.0 0.0 0.00 0.00 0.00 91 1010.7
20260903041506 23 211 0.0 0.0 0.00 0.00 0.00 91 1010.7
20260903040008 23 211 0.0 0.0 0.00 0.00 0.00 91 1010.8
20260903034505 23 211 0.0 0.0 0.00 0.00 0.00 91 1010.8
20260903033002 24 211 0.0 0.0 0.00 0.00 0.00 90 1010.9
20260903031505 24 211 0.0 0.0 0.00 0.00 0.00 90 1010.9
20260903030002 24 211 0.0 0.0 0.00 0.00 0.00 89 1011.1
20260903024502 25 211 0.0 0.0 0.00 0.00 0.00 88 1011.2
20260903023107 25 211 0.0 0.0 0.00 0.00 0.00 88 1011.2
20260903021608 25 211 0.0 0.0 0.00 0.00 0.00 88 1011.2
20260903020103 25 211 0.0 0.0 0.00 0.00 0.00 86 1011.2
20260903014607 26 211 0.0 0.0 0.00 0.00 0.00 85 1011.1
20260903013105 26 211 0.0 0.0 0.00 0.00 0.00 84 1011.1
20260903011559 26 211 0.0 0.0 0.00 0.00 0.00 83 1010.9
20260903010058 27 211 0.0 0.0 0.00 0.00 0.00 80 1010.7
20260903004557 28 211 0.0 0.0 0.00 0.00 0.00 77 1010.5
20260903003057 29 211 0.0 0.0 0.00 0.00 0.00 73 1010.5
20260903001602 30 211 0.0 0.0 0.00 0.00 0.00 70 1010.4
20260903000058 30 211 0.0 0.0 0.00 0.00 0.00 68 1010.4
20260902234616 31 211 0.0 0.0 0.00 0.00 0.00 66 1010.4
20260902233054 32 211 0.0 0.0 0.00 0.00 0.00 64 1010.4
20260902231607 32 211 0.0 0.0 0.00 0.00 0.00 62 1010.5
20260902230106 33 211 0.0 0.0 0.00 0.00 0.00 60 1010.6
20260902224553 33 209 0.0 0.0 0.00 0.00 0.00 60 1010.6
20260902223052 33 259 0.0 0.0 0.00 0.00 0.00 58 1010.5
20260902221551 33 244 0.0 0.0 0.00 0.00 0.00 57 1010.5
20260902220057 33 286 0.0 0.0 0.00 0.00 0.00 57 1010.6
20260902214550 33 236 0.0 0.0 0.00 0.00 0.00 57 1010.6
20260902213050 33 261 0.0 8.0 0.00 0.00 0.00 58 1010.7
20260902211548 33 205 0.0 0.0 0.00 0.00 0.00 57 1010.8
20260902210049 33 295 0.0 1.6 0.00 0.00 0.00 56 1010.9
20260902204544 33 278 0.0 0.0 0.00 0.00 0.00 58 1010.9
20260902203041 33 190 0.0 8.0 0.00 0.00 0.00 56 1011.0
20260902201541 33 262 0.0 0.0 0.00 0.00 0.00 56 1011.1
20260902200039 33 244 0.0 0.0 0.00 0.00 0.00 58 1011.3
20260902194536 33 252 0.0 8.0 0.00 0.00 0.00 59 1011.5
20260902193037 33 244 0.0 4.8 0.00 0.00 0.00 56 1011.5
20260902191534 33 284 0.0 4.8 0.00 0.00 0.00 56 1011.7
20260902190033 33 265 0.0 6.4 0.00 0.00 0.00 58 1011.9
20260902184530 32 246 0.0 1.6 0.00 0.00 0.00 60 1012.0
20260902183029 32 263 0.0 1.6 0.00 0.00 0.00 62 1012.1
20260902181527 32 195 0.0 0.0 0.00 0.00 0.00 62 1012.2
20260902180025 32 286 0.0 4.8 0.00 0.00 0.00 64 1012.3
20260902174526 32 251 0.0 0.0 0.00 0.00 0.00 65 1012.3
20260902173032 32 279 0.0 11.3 0.00 0.00 0.00 65 1012.6
20260902171523 32 248 0.0 8.0 0.00 0.00 0.00 63 1012.8
20260902170021 32 183 0.0 1.6 0.00 0.00 0.00 64 1012.9
20260902164520 32 203 0.0 0.0 0.00 0.00 0.00 66 1012.9
20260902163019 31 279 0.0 0.0 0.00 0.00 0.00 65 1013.1
20260902161533 31 284 0.0 1.6 0.00 0.00 0.00 67 1013.3
20260902160014 31 250 0.0 0.0 0.00 0.00 0.00 69 1013.4
20260902154514 30 212 0.0 0.0 0.00 0.00 0.00 71 1013.5
20260902153010 30 273 0.0 1.6 0.00 0.00 0.00 72 1013.5
20260902151511 30 302 0.0 0.0 0.00 0.00 0.00 73 1013.5
20260902150007 29 207 0.0 0.0 0.00 0.00 0.00 73 1013.5
20260902144503 28 223 0.0 0.0 0.00 0.00 0.00 76 1013.6
20260902143059 28 267 0.0 0.0 0.00 0.00 0.00 77 1013.6
20260902141555 27 259 0.0 0.0 0.00 0.00 0.00 79 1013.5
20260902140053 27 197 0.0 0.0 0.00 0.00 0.00 81 1013.5
20260902134549 26 224 0.0 0.0 0.00 0.00 0.00 83 1013.5
20260902133044 26 190 0.0 0.0 0.00 0.00 0.00 85 1013.4
20260902131540 25 180 0.0 0.0 0.00 0.00 0.00 86 1013.5
20260902130042 24 194 0.0 0.0 0.00 0.00 0.00 89 1013.4
20260902124534 22 298 0.0 0.0 0.00 0.00 0.00 95 1013.3
20260902123032 22 300 0.0 0.0 0.00 0.00 0.00 97 1013.3
20260902121534 21 300 0.0 0.0 0.00 0.00 0.00 97 1013.3
20260902120030 21 300 0.0 0.0 0.00 0.00 0.00 97 1013.2
20260902114602 21 300 0.0 0.0 0.00 0.00 0.00 97 1013.0
20260902113027 20 300 0.0 0.0 0.00 0.00 0.00 96 1012.8
20260902111526 20 252 0.0 0.0 0.00 0.00 0.00 96 1012.6
20260902110036 20 252 0.0 0.0 0.00 0.00 0.00 95 1012.7
20260902104535 21 252 0.0 0.0 0.00 0.00 0.00 95 1012.7
20260902103024 21 252 0.0 0.0 0.00 0.00 0.00 95 1012.6
20260902101520 21 252 0.0 0.0 0.00 0.00 0.00 95 1012.5
20260902100020 21 252 0.0 0.0 0.00 0.00 0.00 95 1012.5
20260902094519 21 252 0.0 0.0 0.00 0.00 0.00 95 1012.5
20260902093017 21 252 0.0 0.0 0.00 0.00 0.00 95 1012.6
20260902091516 21 252 0.0 0.0 0.00 0.00 0.00 95 1012.5
20260902090014 21 252 0.0 0.0 0.00 0.00 0.00 95 1012.4
20260902084522 21 252 0.0 0.0 0.00 0.00 0.00 95 1012.2
20260902083010 21 252 0.0 0.0 0.00 0.00 0.00 94 1012.0
20260902081508 21 252 0.0 0.0 0.00 0.00 0.00 94 1012.1
20260902080009 21 252 0.0 0.0 0.00 0.00 0.00 94 1012.0
20260902074504 21 252 0.0 0.0 0.00 0.00 0.00 94 1011.9
20260902073004 21 252 0.0 0.0 0.00 0.00 0.00 93 1011.9
20260902071502 22 252 0.0 0.0 0.00 0.00 0.00 93 1011.8
20260902070003 22 252 0.0 0.0 0.00 0.00 0.00 93 1011.8
20260902064602 22 252 0.0 0.0 0.00 0.00 0.00 93 1011.7
20260902063058 22 252 0.0 0.0 0.00 0.00 0.00 92 1011.7
20260902061557 22 252 0.0 0.0 0.00 0.00 0.00 93 1011.7